Location: Sihaung
(22.8641°N, 94.0549°E)
Time: 01:25:35
(UTC+00:00)

Cosmos 1151 Rocket - Pass Details

Date: 03 March 2021
Orbit: 592 x 616 km, 82.5° (Epoch: 12 April)

Event Time Altitude Azimuth Distance (km) Brightness Sun altitude
Rises 23:13:39 0° 192° (SSW) 2,863 6.4 -12.1°
Reaches altitude 10° 23:15:54 10° 196° (SSW) 1,959 5.5 -11.6°
Maximum altitude 23:20:09 58° 276° (W) 710 3.0 -10.6°
Drops below altitude 10° 23:24:25 10° 356° (N) 1,954 5.6 -9.7°
Sets 23:26:40 0° 360° (N) 2,855 6.4 -9.1°
